TimeMDT,TemperatureF,Dew PointF,Humidity,Sea Level PressureIn,VisibilityMPH,Wind Direction,Wind SpeedMPH,Gust SpeedMPH,PrecipitationIn,Events,Conditions,WindDirDegrees,DateUTC
12:53 AM,36.0,30.9,82,30.09,10.0,Calm,Calm,-,N/A,,Clear,0,2013-03-16 06:53:00
1:53 AM,33.1,30.0,89,30.09,10.0,Calm,Calm,-,N/A,,Clear,0,2013-03-16 07:53:00
2:53 AM,35.1,30.9,85,30.07,10.0,Calm,Calm,-,N/A,,Overcast,0,2013-03-16 08:53:00
3:53 AM,35.1,32.0,89,30.06,10.0,Calm,Calm,-,N/A,,Overcast,0,2013-03-16 09:53:00
4:53 AM,37.0,32.0,82,30.05,10.0,Calm,Calm,-,N/A,,Overcast,0,2013-03-16 10:53:00
5:53 AM,35.1,32.0,89,30.04,10.0,Calm,Calm,-,N/A,,Scattered Clouds,0,2013-03-16 11:53:00
6:53 AM,35.1,32.0,89,30.04,10.0,Calm,Calm,-,N/A,,Overcast,0,2013-03-16 12:53:00
7:53 AM,36.0,33.1,89,30.03,10.0,Calm,Calm,-,0.00,Rain,Light Rain,0,2013-03-16 13:53:00
8:53 AM,36.0,34.0,93,30.01,10.0,SW,4.6,-,0.00,,Overcast,220,2013-03-16 14:53:00
9:53 AM,37.0,34.0,89,30.04,10.0,West,5.8,-,N/A,,Overcast,280,2013-03-16 15:53:00
10:53 AM,42.1,36.0,79,30.01,10.0,Calm,Calm,-,0.00,,Mostly Cloudy,0,2013-03-16 16:53:00
11:53 AM,46.0,34.0,63,29.99,10.0,ESE,4.6,-,N/A,,Mostly Cloudy,120,2013-03-16 17:53:00
12:53 PM,46.9,34.0,61,29.97,10.0,WNW,11.5,-,0.00,,Overcast,300,2013-03-16 18:53:00
1:33 PM,44.6,35.6,71,29.92,7.0,SW,8.1,17.3,0.00,Rain,Light Rain,220,2013-03-16 19:33:00
1:41 PM,44.6,37.4,76,29.92,4.0,WSW,3.5,-,0.01,Rain,Light Rain,250,2013-03-16 19:41:00
1:53 PM,46.9,36.0,66,29.96,10.0,South,3.5,-,0.01,,Scattered Clouds,180,2013-03-16 19:53:00
2:53 PM,46.9,34.0,61,29.92,10.0,North,9.2,-,N/A,,Overcast,350,2013-03-16 20:53:00
3:53 PM,48.9,33.1,54,29.87,10.0,NNE,6.9,-,N/A,,Overcast,30,2013-03-16 21:53:00
4:23 PM,42.8,35.6,76,29.85,4.0,WNW,9.2,38.0,0.00,Rain,Rain,290,2013-03-16 22:23:00
4:53 PM,48.0,36.0,63,29.86,10.0,Calm,Calm,-,0.02,,Mostly Cloudy,0,2013-03-16 22:53:00
5:53 PM,48.0,32.0,54,29.83,10.0,West,10.4,-,N/A,,Overcast,270,2013-03-16 23:53:00
6:53 PM,46.9,30.9,54,29.80,10.0,NW,4.6,-,N/A,,Mostly Cloudy,320,2013-03-17 00:53:00
7:53 PM,43.0,32.0,65,29.78,10.0,North,4.6,-,N/A,,Scattered Clouds,350,2013-03-17 01:53:00
8:53 PM,42.1,32.0,67,29.78,10.0,North,4.6,-,N/A,,Overcast,350,2013-03-17 02:53:00
9:53 PM,42.1,34.0,73,29.76,10.0,SSW,4.6,-,0.00,Rain,Light Rain,200,2013-03-17 03:53:00
10:23 PM,41.0,33.8,76,29.71,10.0,Calm,Calm,-,0.00,,Overcast,0,2013-03-17 04:23:00
10:53 PM,41.0,33.1,73,29.73,10.0,SE,4.6,-,0.00,,Overcast,130,2013-03-17 04:53:00
11:53 PM,39.9,35.1,83,29.71,10.0,South,3.5,-,0.00,Rain,Light Rain,170,2013-03-17 05:53:00